IGO21F VOMM-VIJP

Flight info

Callsign IGO21F
Flight time N/A
Altitude 36000
Route DOHIA DCT KAMGU Q24 BPL/N0441F280 W122 EPDAD/N0434F270 W122 KO/N0443F280 W122 RIDRA RIDRA1A
Aircraft A21N/M-SDE2E3FGHIRWXY/LB1

Departure

Time 2026-04-30 08:00
Airport Chennai International Airport (VOMM)

Arrival

Time N/A
Airport Jaipur International Airport (VIJP)
Time Latitude Longitude Altitude Speed Heading
2026-04-30 07:39 12.98488 80.16674 56 ft 0 kts 159°
2026-04-30 07:50 12.98494 80.16671 55 ft 2 kts 156°
2026-04-30 07:50 12.98505 80.16664 53 ft 2 kts 158°
2026-04-30 07:51 12.98507 80.16663 53 ft 2 kts 161°
2026-04-30 07:51 12.98515 80.16660 55 ft 1 kts 157°
2026-04-30 07:51 12.98527 80.16656 53 ft 2 kts 155°
2026-04-30 07:51 12.98540 80.16649 51 ft 2 kts 118°
2026-04-30 07:52 12.98546 80.16637 51 ft 2 kts 92°
2026-04-30 07:52 12.98545 80.16624 51 ft 2 kts 52°
2026-04-30 07:52 12.98529 80.16607 48 ft 3 kts 48°
2026-04-30 07:52 12.98526 80.16604 55 ft 0 kts 58°
2026-04-30 07:54 12.98527 80.16605 55 ft 1 kts 58°
2026-04-30 07:54 12.98544 80.16634 51 ft 8 kts 58°
2026-04-30 07:55 12.98555 80.16651 53 ft 3 kts 57°
2026-04-30 07:55 12.98564 80.16658 50 ft 0 kts 31°
2026-04-30 07:55 12.98564 80.16659 50 ft 0 kts 40°
2026-04-30 07:55 12.98571 80.16694 50 ft 9 kts 78°
2026-04-30 07:56 12.98609 80.16763 55 ft 10 kts 27°
2026-04-30 07:56 12.98688 80.16740 54 ft 16 kts 339°
2026-04-30 07:56 12.98739 80.16729 50 ft 4 kts 11°
2026-04-30 07:56 12.98769 80.16773 52 ft 11 kts 70°
2026-04-30 07:57 12.98805 80.16862 53 ft 16 kts 66°
2026-04-30 07:57 12.98854 80.16983 51 ft 20 kts 69°
2026-04-30 07:57 12.98908 80.17130 52 ft 24 kts 69°
2026-04-30 07:57 12.98963 80.17266 52 ft 22 kts 60°
2026-04-30 07:58 12.99015 80.17389 55 ft 15 kts 71°
2026-04-30 07:58 12.99058 80.17504 52 ft 19 kts 67°
2026-04-30 07:58 12.99114 80.17641 54 ft 23 kts 68°
2026-04-30 07:58 12.99169 80.17695 51 ft 9 kts
2026-04-30 07:59 12.99244 80.17679 51 ft 13 kts 340°
2026-04-30 07:59 12.99289 80.17634 53 ft 9 kts 284°
2026-04-30 07:59 12.99283 80.17604 54 ft 0 kts 243°
2026-04-30 08:00 12.98971 80.16786 51 ft 142 kts 249°
2026-04-30 08:00 12.98539 80.15701 529 ft 171 kts 246°
2026-04-30 08:00 12.98055 80.14489 1249 ft 196 kts 246°
2026-04-30 08:00 12.97887 80.13112 2298 ft 199 kts 278°
2026-04-30 08:01 12.98533 80.11799 2891 ft 220 kts 313°
2026-04-30 08:01 12.99915 80.11002 3358 ft 242 kts 347°
2026-04-30 08:01 13.01667 80.11077 3782 ft 267 kts 16°
2026-04-30 08:01 13.03459 80.11779 4539 ft 280 kts 22°
2026-04-30 08:02 13.07126 80.13088 5861 ft 280 kts 11°
2026-04-30 08:02 13.09056 80.13436 6635 ft 280 kts
2026-04-30 08:03 13.12927 80.14004 8474 ft 285 kts
2026-04-30 08:03 13.16904 80.14558 10162 ft 296 kts
2026-04-30 08:03 13.19020 80.14862 10484 ft 319 kts
2026-04-30 08:04 13.21306 80.15072 10764 ft 340 kts
2026-04-30 08:04 13.23665 80.14957 11435 ft 346 kts 357°
2026-04-30 08:04 13.25254 80.14852 11789 ft 338 kts 358°
2026-04-30 08:04 13.28434 80.14666 12508 ft 351 kts 358°
2026-04-30 08:05 13.30876 80.14365 13290 ft 355 kts 350°
2026-04-30 08:05 13.33274 80.13707 14004 ft 359 kts 342°
2026-04-30 08:05 13.35613 80.12760 14648 ft 364 kts 340°
2026-04-30 08:05 13.38007 80.11882 15298 ft 367 kts 342°
2026-04-30 08:06 13.40442 80.11050 15912 ft 372 kts 342°
2026-04-30 08:06 13.42910 80.10206 16544 ft 375 kts 342°
2026-04-30 08:06 13.44592 80.09622 16959 ft 378 kts 341°
2026-04-30 08:06 13.47093 80.08741 17567 ft 382 kts 341°
2026-04-30 08:07 13.49577 80.07856 18139 ft 386 kts 341°
2026-04-30 08:07 13.52126 80.06944 18677 ft 388 kts 340°
2026-04-30 08:07 13.54684 80.06029 19223 ft 391 kts 340°
2026-04-30 08:07 13.57263 80.05107 19733 ft 394 kts 340°
2026-04-30 08:08 13.59868 80.04174 20238 ft 398 kts 339°
2026-04-30 08:08 13.62491 80.03231 20746 ft 401 kts 339°
2026-04-30 08:08 13.65138 80.02280 21258 ft 404 kts 339°
2026-04-30 08:08 13.67801 80.01324 21763 ft 407 kts 339°
2026-04-30 08:09 13.70485 80.00359 22283 ft 410 kts 338°
2026-04-30 08:09 13.73192 79.99386 22767 ft 414 kts 338°
2026-04-30 08:09 13.75918 79.98406 23258 ft 417 kts 338°
2026-04-30 08:09 13.78666 79.97418 23682 ft 419 kts 338°
2026-04-30 08:10 13.81426 79.96424 24105 ft 421 kts 338°
2026-04-30 08:10 13.84199 79.95424 24509 ft 424 kts 338°
2026-04-30 08:10 13.86992 79.94418 24904 ft 426 kts 338°
2026-04-30 08:10 13.89805 79.93403 25296 ft 429 kts 338°
2026-04-30 08:11 13.92624 79.92385 25675 ft 431 kts 338°
2026-04-30 08:11 13.95458 79.91362 26041 ft 433 kts 338°
2026-04-30 08:11 13.98313 79.90331 26420 ft 435 kts 338°
2026-04-30 08:11 14.01181 79.89295 26772 ft 438 kts 338°
2026-04-30 08:12 14.04069 79.88251 27119 ft 440 kts 338°
2026-04-30 08:12 14.06901 79.87228 27445 ft 442 kts 338°
2026-04-30 08:12 14.09810 79.86177 27774 ft 444 kts 338°
2026-04-30 08:12 14.12734 79.85121 28095 ft 446 kts 338°
2026-04-30 08:13 14.15683 79.84056 28409 ft 448 kts 338°
2026-04-30 08:13 14.18627 79.82992 28712 ft 450 kts 338°
2026-04-30 08:13 14.21596 79.81919 29005 ft 452 kts 338°
2026-04-30 08:13 14.24581 79.80840 29298 ft 454 kts 338°
2026-04-30 08:14 14.27568 79.79759 29593 ft 456 kts 338°
2026-04-30 08:14 14.30533 79.78687 29867 ft 458 kts 338°
2026-04-30 08:14 14.33550 79.77596 30133 ft 459 kts 338°
2026-04-30 08:14 14.36601 79.76492 30422 ft 461 kts 338°
2026-04-30 08:15 14.39595 79.75408 30692 ft 462 kts 338°
2026-04-30 08:15 14.42631 79.74309 30994 ft 462 kts 338°
2026-04-30 08:15 14.45659 79.73213 31364 ft 461 kts 338°
2026-04-30 08:15 14.48687 79.72117 31737 ft 459 kts 338°
2026-04-30 08:16 14.51699 79.71026 32092 ft 458 kts 338°
2026-04-30 08:16 14.54699 79.69939 32424 ft 457 kts 338°
2026-04-30 08:16 14.57703 79.68850 32750 ft 456 kts 338°
2026-04-30 08:16 14.60688 79.67767 33069 ft 455 kts 338°
2026-04-30 08:17 14.63680 79.66682 33365 ft 455 kts 338°
2026-04-30 08:17 14.66664 79.65600 33645 ft 455 kts 338°
2026-04-30 08:17 14.69650 79.64516 33901 ft 454 kts 338°
2026-04-30 08:17 14.72629 79.63435 34182 ft 452 kts 338°
2026-04-30 08:18 14.75595 79.62357 34472 ft 450 kts 338°
2026-04-30 08:18 14.78501 79.61300 34760 ft 448 kts 339°
2026-04-30 08:18 14.81436 79.60232 35032 ft 446 kts 339°
2026-04-30 08:18 14.84357 79.59169 35316 ft 444 kts 339°
2026-04-30 08:19 14.87267 79.58110 35598 ft 442 kts 339°
2026-04-30 08:19 14.90176 79.57052 35754 ft 444 kts 339°
2026-04-30 08:19 14.93106 79.55985 35774 ft 449 kts 339°
2026-04-30 08:20 14.99065 79.53816 35775 ft 458 kts 339°
2026-04-30 08:20 15.05116 79.51614 35774 ft 463 kts 339°
2026-04-30 08:21 15.11218 79.49391 35776 ft 466 kts 339°
2026-04-30 08:21 15.17352 79.47156 35778 ft 468 kts 339°
2026-04-30 08:22 15.23508 79.44911 35776 ft 470 kts 339°
2026-04-30 08:22 15.29676 79.42661 35782 ft 470 kts 339°
2026-04-30 08:23 15.35810 79.40421 35786 ft 470 kts 339°
2026-04-30 08:23 15.41989 79.38164 35788 ft 470 kts 339°
2026-04-30 08:24 15.48172 79.35903 35794 ft 470 kts 339°
2026-04-30 08:24 15.54341 79.33646 35797 ft 470 kts 340°
2026-04-30 08:25 15.60512 79.31387 35806 ft 470 kts 340°
2026-04-30 08:25 15.66666 79.29133 35811 ft 470 kts 340°
2026-04-30 08:26 15.72785 79.26890 35815 ft 470 kts 340°
2026-04-30 08:26 15.78955 79.24626 35823 ft 470 kts 340°
2026-04-30 08:27 15.85116 79.22364 35828 ft 469 kts 340°
2026-04-30 08:27 15.91276 79.20101 35834 ft 469 kts 340°
2026-04-30 08:28 15.97451 79.17899 35842 ft 469 kts 342°
2026-04-30 08:28 16.03765 79.16214 35846 ft 470 kts 346°
2026-04-30 08:29 16.10147 79.14679 35854 ft 469 kts 346°
2026-04-30 08:29 16.16508 79.13141 35854 ft 469 kts 346°
2026-04-30 08:30 16.22874 79.11602 35857 ft 469 kts 346°
2026-04-30 08:30 16.29179 79.10078 35855 ft 469 kts 346°
2026-04-30 08:31 16.35582 79.08529 35859 ft 468 kts 346°
2026-04-30 08:31 16.41879 79.07005 35850 ft 468 kts 346°
2026-04-30 08:32 16.48222 79.05469 35854 ft 468 kts 346°
2026-04-30 08:32 16.54559 79.03933 35850 ft 467 kts 346°
2026-04-30 08:33 16.60889 79.02398 35851 ft 466 kts 346°
2026-04-30 08:33 16.67210 79.00864 35849 ft 466 kts 346°
2026-04-30 08:34 16.73527 78.99330 35855 ft 465 kts 346°
2026-04-30 08:34 16.79829 78.97798 35856 ft 465 kts 346°
2026-04-30 08:35 16.86089 78.96276 35860 ft 464 kts 346°
2026-04-30 08:35 16.92381 78.94745 35858 ft 464 kts 346°
2026-04-30 08:36 16.98678 78.93211 35865 ft 464 kts 346°
2026-04-30 08:36 17.04962 78.91679 35866 ft 463 kts 346°
2026-04-30 08:37 17.11250 78.90146 35868 ft 463 kts 346°
2026-04-30 08:37 17.17525 78.88614 35860 ft 463 kts 346°
2026-04-30 08:38 17.23806 78.87081 35860 ft 463 kts 346°
2026-04-30 08:38 17.30085 78.85546 35860 ft 463 kts 346°
2026-04-30 08:39 17.36359 78.84012 35863 ft 463 kts 346°
2026-04-30 08:39 17.42628 78.82477 35866 ft 463 kts 346°
2026-04-30 08:40 17.48919 78.80938 35875 ft 463 kts 346°
2026-04-30 08:40 17.55185 78.79420 35880 ft 463 kts 346°
2026-04-30 08:41 17.61424 78.77909 35881 ft 462 kts 346°
2026-04-30 08:41 17.67696 78.76388 35882 ft 462 kts 346°
2026-04-30 08:42 17.73968 78.74865 35881 ft 462 kts 346°
2026-04-30 08:42 17.80226 78.73343 35882 ft 462 kts 346°
2026-04-30 08:43 17.86489 78.71820 35885 ft 461 kts 346°
2026-04-30 08:43 17.92748 78.70297 35880 ft 461 kts 346°
2026-04-30 08:44 17.98996 78.68775 35875 ft 461 kts 346°
2026-04-30 08:44 18.05245 78.67252 35877 ft 461 kts 346°
2026-04-30 08:45 18.11489 78.65729 35876 ft 461 kts 346°
2026-04-30 08:45 18.17738 78.64188 35873 ft 461 kts 345°
2026-04-30 08:46 18.23979 78.62639 35872 ft 461 kts 345°
2026-04-30 08:46 18.30176 78.61102 35872 ft 460 kts 345°
2026-04-30 08:47 18.36415 78.59554 35871 ft 460 kts 345°
2026-04-30 08:47 18.42644 78.58009 35872 ft 460 kts 345°
2026-04-30 08:48 18.48873 78.56461 35864 ft 460 kts 345°
2026-04-30 08:48 18.55093 78.54915 35867 ft 460 kts 345°
2026-04-30 08:49 18.61319 78.53367 35868 ft 459 kts 345°
2026-04-30 08:49 18.67547 78.51816 35862 ft 459 kts 345°
2026-04-30 08:50 18.72722 78.50527 35857 ft 459 kts 345°
2026-04-30 08:50 18.79954 78.48724 35859 ft 459 kts 345°
2026-04-30 08:51 18.86169 78.47173 35859 ft 458 kts 345°
2026-04-30 08:51 18.91339 78.45883 35843 ft 458 kts 345°
2026-04-30 08:52 18.97550 78.44331 35846 ft 458 kts 345°
2026-04-30 08:52 19.03748 78.42781 35842 ft 458 kts 345°
2026-04-30 08:53 19.09954 78.41228 35843 ft 458 kts 345°
2026-04-30 08:53 19.16112 78.39685 35846 ft 458 kts 345°
2026-04-30 08:54 19.22302 78.38090 35838 ft 458 kts 345°
2026-04-30 08:54 19.28471 78.36450 35841 ft 458 kts 345°
2026-04-30 08:55 19.34655 78.34813 35836 ft 457 kts 345°
2026-04-30 08:55 19.40830 78.33183 35833 ft 457 kts 345°
2026-04-30 08:56 19.46883 78.31172 35829 ft 455 kts 339°
2026-04-30 08:56 19.52802 78.28896 35830 ft 455 kts 339°
2026-04-30 08:57 19.58766 78.26606 35828 ft 455 kts 339°
2026-04-30 08:57 19.64712 78.24322 35824 ft 455 kts 339°
2026-04-30 08:58 19.70639 78.22044 35816 ft 455 kts 339°
2026-04-30 08:58 19.76587 78.19755 35813 ft 455 kts 339°
2026-04-30 08:59 19.82541 78.17462 35809 ft 455 kts 339°